• En España
  • Lista de países
  • Para 7 días
  • Temperatura del agua
  • Mapa Satelital
  • El tiempo en el mapa
  • Informadores
  • user-avatar
    Iniciar sesión

    Tiempo cada hora Tirana

    Hoy, 23 Junio, Sábado

    Tiempo Temperatura Precipitaciones Viento Presión Humedad
    00:00 +21°C° 0,5 mm 3 mps 752 mmHg 81%
    01:00 +21°C° 0 mm 4 mps 751 mmHg 82%
    02:00 +21°C° 1,2 mm 4 mps 752 mmHg 83%
    03:00 +20°C° 1,2 mm 4 mps 752 mmHg 83%
    04:00 +20°C° 1,2 mm 4 mps 752 mmHg 84%
    05:00 +20°C° 1,5 mm 4 mps 752 mmHg 84%
    06:00 +20°C° 1,5 mm 4 mps 753 mmHg 84%
    07:00 +20°C° 0 mm 5 mps 753 mmHg 80%
    08:00 +21°C° 0,2 mm 4 mps 753 mmHg 75%
    09:00 +22°C° 0,2 mm 4 mps 753 mmHg 70%
    10:00 +23°C° 0,2 mm 4 mps 753 mmHg 65%
    11:00 +25°C° 0,1 mm 4 mps 753 mmHg 62%
    12:00 +26°C° 0,1 mm 4 mps 753 mmHg 58%
    13:00 +27°C° 0,1 mm 4 mps 753 mmHg 54%
    14:00 +27°C° 0 mm 4 mps 753 mmHg 53%
    15:00 +27°C° 0 mm 5 mps 753 mmHg 52%
    16:00 +28°C° 0 mm 5 mps 752 mmHg 51%
    17:00 +26°C° 0 mm 5 mps 752 mmHg 57%
    18:00 +23°C° 0 mm 5 mps 753 mmHg 63%
    19:00 +22°C° 0 mm 5 mps 753 mmHg 69%
    20:00 +21°C° 0 mm 5 mps 753 mmHg 70%
    21:00 +20°C° 0 mm 5 mps 753 mmHg 71%
    22:00 +19°C° 0 mm 4 mps 754 mmHg 72%
    23:00 +18°C° 0 mm 4 mps 754 mmHg 72%

    Mañana, 24 Junio, Domingo

    Tiempo Temperatura Precipitaciones Viento Presión Humedad
    00:00 +18°C° 0 mm 4 mps 754 mmHg 71%
    01:00 +17°C° 0 mm 4 mps 754 mmHg 71%
    02:00 +17°C° 0 mm 4 mps 754 mmHg 69%
    03:00 +17°C° 0 mm 4 mps 754 mmHg 67%
    04:00 +15°C° 0 mm 4 mps 754 mmHg 66%
    05:00 +18°C° 0 mm 4 mps 754 mmHg 63%
    06:00 +19°C° 0 mm 4 mps 754 mmHg 61%
    07:00 +21°C° 0 mm 4 mps 753 mmHg 58%
    08:00 +22°C° 0 mm 4 mps 754 mmHg 53%
    09:00 +25°C° 0 mm 4 mps 754 mmHg 48%
    10:00 +27°C° 0 mm 3 mps 754 mmHg 43%
    11:00 +27°C° 0 mm 4 mps 753 mmHg 42%
    12:00 +28°C° 0 mm 4 mps 753 mmHg 40%
    13:00 +29°C° 0 mm 4 mps 753 mmHg 39%
    14:00 +29°C° 0 mm 4 mps 753 mmHg 40%
    15:00 +29°C° 0 mm 5 mps 753 mmHg 40%
    16:00 +28°C° 0 mm 6 mps 752 mmHg 41%
    17:00 +27°C° 0 mm 6 mps 752 mmHg 48%
    18:00 +25°C° 0 mm 5 mps 752 mmHg 55%
    19:00 +22°C° 0 mm 5 mps 752 mmHg 62%
    20:00 +21°C° 0 mm 5 mps 753 mmHg 64%
    21:00 +20°C° 0 mm 4 mps 753 mmHg 65%
    22:00 +19°C° 0 mm 4 mps 753 mmHg 66%
    23:00 +19°C° 0 mm 4 mps 753 mmHg 66%

    Pasado mañana, 25 Junio, Lunes

    Tiempo Temperatura Precipitaciones Viento Presión Humedad
    00:00 +18°C° 0 mm 4 mps 753 mmHg 66%
    01:00 +18°C° 0 mm 4 mps 753 mmHg 66%
    02:00 +18°C° 0 mm 3 mps 752 mmHg 66%
    03:00 +17°C° 0 mm 3 mps 752 mmHg 65%
    04:00 +17°C° 0 mm 3 mps 752 mmHg 65%
    05:00 +19°C° 0 mm 3 mps 752 mmHg 62%
    06:00 +20°C° 0 mm 3 mps 752 mmHg 60%
    07:00 +22°C° 0 mm 3 mps 752 mmHg 58%
    08:00 +25°C° 0 mm 3 mps 752 mmHg 54%
    09:00 +26°C° 0 mm 3 mps 752 mmHg 50%
    10:00 +27°C° 0 mm 3 mps 752 mmHg 45%
    11:00 +28°C° 0 mm 3 mps 752 mmHg 45%
    12:00 +28°C° 0 mm 2 mps 752 mmHg 45%
    13:00 +29°C° 0 mm 2 mps 751 mmHg 44%
    14:00 +28°C° 0,1 mm 3 mps 751 mmHg 47%
    15:00 +28°C° 0,1 mm 3 mps 751 mmHg 49%
    16:00 +27°C° 0,1 mm 3 mps 751 mmHg 52%
    17:00 +26°C° 0,1 mm 4 mps 751 mmHg 57%
    18:00 +25°C° 0,1 mm 4 mps 751 mmHg 62%
    19:00 +22°C° 0,1 mm 4 mps 751 mmHg 67%
    20:00 +21°C° 0,1 mm 4 mps 751 mmHg 69%
    21:00 +20°C° 0,1 mm 4 mps 752 mmHg 71%
    22:00 +20°C° 0,1 mm 4 mps 752 mmHg 74%
    23:00 +20°C° 0,1 mm 4 mps 752 mmHg 75%

    26 Junio, Martes

    Tiempo Temperatura Precipitaciones Viento Presión Humedad
    00:00 +19°C° 0,1 mm 4 mps 751 mmHg 76%
    01:00 +19°C° 0,1 mm 4 mps 751 mmHg 77%
    02:00 +19°C° 0,1 mm 4 mps 751 mmHg 78%
    03:00 +19°C° 0,1 mm 4 mps 751 mmHg 78%
    04:00 +18°C° 0,1 mm 4 mps 750 mmHg 79%
    05:00 +19°C° 0,1 mm 4 mps 750 mmHg 77%
    06:00 +20°C° 0,1 mm 4 mps 751 mmHg 75%
    07:00 +20°C° 0,1 mm 4 mps 751 mmHg 74%
    08:00 +21°C° 0,1 mm 5 mps 751 mmHg 72%
    09:00 +22°C° 0,1 mm 5 mps 751 mmHg 69%
    10:00 +22°C° 0,1 mm 5 mps 751 mmHg 67%
    11:00 +25°C° 0 mm 5 mps 750 mmHg 62%
    12:00 +26°C° 0 mm 5 mps 750 mmHg 56%
    13:00 +27°C° 0 mm 5 mps 750 mmHg 51%
    14:00 +27°C° 0,1 mm 5 mps 750 mmHg 52%
    15:00 +27°C° 0,1 mm 5 mps 749 mmHg 53%
    16:00 +27°C° 0,1 mm 5 mps 749 mmHg 54%
    17:00 +26°C° 0,1 mm 5 mps 749 mmHg 60%
    18:00 +23°C° 0,1 mm 5 mps 749 mmHg 65%
    19:00 +22°C° 0,1 mm 5 mps 749 mmHg 71%
    20:00 +21°C° 0 mm 5 mps 749 mmHg 72%
    21:00 +21°C° 0 mm 5 mps 749 mmHg 74%
    22:00 +20°C° 0 mm 5 mps 749 mmHg 75%
    23:00 +20°C° 0 mm 5 mps 749 mmHg 77%

    27 Junio, Miércoles

    Tiempo Temperatura Precipitaciones Viento Presión Humedad
    00:00 +20°C° 0 mm 5 mps 749 mmHg 78%
    01:00 +19°C° 0 mm 5 mps 749 mmHg 79%
    02:00 +19°C° 0,4 mm 5 mps 748 mmHg 82%
    03:00 +19°C° 0,4 mm 4 mps 748 mmHg 84%
    04:00 +19°C° 0,4 mm 4 mps 748 mmHg 86%
    05:00 +19°C° 0,6 mm 5 mps 748 mmHg 85%
    06:00 +20°C° 0,6 mm 5 mps 748 mmHg 84%
    07:00 +20°C° 0,6 mm 5 mps 749 mmHg 82%
    08:00 +21°C° 0,4 mm 5 mps 749 mmHg 79%
    09:00 +21°C° 0,4 mm 5 mps 749 mmHg 76%
    10:00 +22°C° 0,4 mm 6 mps 749 mmHg 74%
    11:00 +22°C° 0,4 mm 6 mps 749 mmHg 72%
    12:00 +23°C° 0,4 mm 5 mps 749 mmHg 70%
    13:00 +23°C° 0,4 mm 5 mps 749 mmHg 68%
    14:00 +23°C° 0,1 mm 5 mps 749 mmHg 67%
    15:00 +23°C° 0,1 mm 5 mps 749 mmHg 66%
    16:00 +25°C° 0,1 mm 5 mps 749 mmHg 65%
    17:00 +23°C° 0 mm 5 mps 749 mmHg 69%
    18:00 +22°C° 0 mm 5 mps 749 mmHg 72%
    19:00 +21°C° 0 mm 5 mps 749 mmHg 76%
    20:00 +20°C° 0 mm 5 mps 749 mmHg 77%
    21:00 +20°C° 0 mm 5 mps 749 mmHg 78%
    22:00 +19°C° 0 mm 5 mps 750 mmHg 79%
    23:00 +19°C° 0 mm 4 mps 749 mmHg 80%

    28 Junio, Jueves

    Tiempo Temperatura Precipitaciones Viento Presión Humedad
    00:00 +18°C° 0 mm 4 mps 749 mmHg 80%
    01:00 +18°C° 0 mm 3 mps 749 mmHg 80%
    02:00 +18°C° 0 mm 3 mps 749 mmHg 80%
    03:00 +18°C° 0 mm 3 mps 749 mmHg 80%
    04:00 +17°C° 0 mm 3 mps 749 mmHg 80%
    05:00 +19°C° 0 mm 3 mps 749 mmHg 76%
    06:00 +21°C° 0 mm 3 mps 750 mmHg 71%
    07:00 +24°C° 0 mm 3 mps 750 mmHg 66%
    08:00 +25°C° 0 mm 2 mps 750 mmHg 61%
    09:00 +27°C° 0 mm 2 mps 750 mmHg 57%
    10:00 +28°C° 0 mm 2 mps 750 mmHg 52%
    11:00 +29°C° 0,2 mm 3 mps 750 mmHg 52%
    12:00 +29°C° 0,2 mm 3 mps 750 mmHg 52%
    13:00 +29°C° 0,2 mm 4 mps 750 mmHg 51%
    14:00 +29°C° 0,2 mm 4 mps 750 mmHg 53%
    15:00 +29°C° 0,2 mm 5 mps 750 mmHg 55%
    16:00 +29°C° 0,2 mm 5 mps 750 mmHg 56%
    17:00 +27°C° 0,1 mm 5 mps 750 mmHg 64%
    18:00 +25°C° 0,1 mm 4 mps 750 mmHg 71%
    19:00 +24°C° 0,1 mm 3 mps 750 mmHg 78%
    20:00 +22°C° 0 mm 3 mps 751 mmHg 80%
    21:00 +21°C° 0 mm 2 mps 751 mmHg 82%
    22:00 +21°C° 0 mm 1 mps 751 mmHg 85%
    23:00 +21°C° 0 mm 1 mps 751 mmHg 84%
    Mostrar más